Beidou DW 8

operational
NORAD ID: 37384 Int'l Des: 2011-013 Owner: CNSA Country: CN Constellation: BeiDou
HEOCIRCULARGSO

About Beidou DW 8

Description loading...

Live Position

Loading 3D Globe...

Upcoming Passes

Altitude History

Altitude vs Time

uPlot chart will show altitude changes over time

Two-Line Element Set

1 37384U 11013A 25258.86031081 -.00000165 00000-0 00000-0 0 9993
2 37384 62.0271 42.7514 0036046 179.6513 188.3510 1.00291885 52916
Epoch: Sep 15, 2025 • Age: 25 hours

Current Status

Altitude 35925.3 km
Velocity 3.06 km/s
Sub-Earth Point 15.34°N, 96.87°E
Launch Date Apr 9, 2011
Age 14.4 years
Type navigation

Technical Details

Classification Payload
Mass 2300.00 kg
Dry Mass 1300.00 kg
Total Mass 2300.00 kg
Length 3.00 m
Diameter 1.70 m
Span 18.00 m
Shape Box + 2 Pan
Manufacturer CAST
Bus Type DFH-3
Phase Status In Orbit
Owner/State CNSA/CN

Large Constellations

Loading constellations...